CW4629 Weather Reports


Display with metric or nautical units.
time (UTC)temp
F
wind
direction
speed
MPH
gust
MPH
rain 1hr
in
rain 24hr
in
rain mn
in
humidity
%
barometer
mb
20260901071804 72 122 2.0 3.0 0.00 0.21 0.00 54 1019.4
20260901070807 72 90 2.0 4.0 0.00 0.21 0.00 54 1019.2
20260901065905 73 135 0.0 2.0 0.00 0.21 0.00 53 1019.1
20260901064907 72 99 3.0 5.0 0.00 0.21 0.00 54 1019.0
20260901064005 70 112 1.0 4.0 0.00 0.21 0.00 58 1018.9
20260901063006 70 112 0.0 0.0 0.00 0.21 0.00 59 1018.9
20260901062006 70 180 0.0 0.0 0.00 0.21 0.00 58 1019.2
20260901061008 70 180 0.0 0.0 0.00 0.21 0.00 58 1018.8
20260901060021 70 202 0.0 0.0 0.00 0.21 0.00 57 1018.8
20260901055004 70 45 1.0 2.0 0.00 0.21 0.21 56 1018.7
20260901054021 70 337 0.0 0.0 0.00 0.21 0.21 56 1018.9
20260901052004 70 22 1.0 2.0 0.00 0.21 0.21 56 1018.9
20260901051020 70 28 3.0 4.0 0.00 0.21 0.21 56 1018.8
20260901050006 71 337 1.0 2.0 0.00 0.21 0.21 56 1018.8
20260901044021 71 347 2.0 4.0 0.00 0.21 0.21 55 1018.7
20260901043022 71 67 0.0 0.0 0.00 0.21 0.21 54 1018.5
20260901042106 72 133 1.0 2.0 0.00 0.21 0.21 53 1018.7
20260901041120 71 45 0.0 0.0 0.00 0.21 0.21 54 1018.5
20260901040205 71 157 0.0 0.0 0.00 0.21 0.21 54 1018.6
20260901040105 71 157 0.0 0.0 0.00 0.21 0.21 53 1018.6
20260901035105 72 247 6.0 6.0 0.00 0.21 0.21 53 1018.1
20260901034108 72 264 7.0 11.0 0.00 0.21 0.21 54 1018.0
20260901033107 73 297 2.0 4.0 0.00 0.21 0.21 54 1017.7
20260901032205 73 253 5.0 9.0 0.00 0.21 0.21 53 1017.3
20260901030206 74 307 2.0 5.0 0.00 0.21 0.21 54 1017.1
20260901025306 75 270 0.0 0.0 0.00 0.21 0.21 55 1016.7
20260901024309 76 277 6.0 11.0 0.00 0.21 0.21 50 1016.3
20260901023323 80 303 6.0 8.0 0.00 0.21 0.21 44 1016.1
20260901022407 82 322 7.0 14.0 0.00 0.21 0.21 40 1015.7
20260901021408 82 90 7.0 12.0 0.00 0.21 0.21 44 1015.5
20260901020409 84 2 4.0 6.0 0.00 0.21 0.21 37 1015.2
20260901015408 85 63 6.0 10.0 0.00 0.21 0.21 34 1014.5
20260901013408 85 59 2.0 6.0 0.00 0.21 0.21 35 1014.2
20260901012423 86 60 5.0 8.0 0.00 0.21 0.21 35 1014.1
20260901011506 86 56 4.0 7.0 0.00 0.21 0.21 34 1014.2
20260901005606 86 80 7.0 11.0 0.00 0.21 0.21 35 1014.1
20260901002623 90 122 2.0 6.0 0.00 0.21 0.21 32 1014.1
20260901001621 90 87 4.0 7.0 0.00 0.21 0.21 31 1014.3
20260901000706 90 75 3.0 6.0 0.00 0.21 0.21 32 1014.1
20260831235706 89 171 1.0 4.0 0.00 0.21 0.21 33 1014.4
20260831234708 90 154 3.0 7.0 0.00 0.21 0.21 33 1014.4
20260831233705 91 147 4.0 8.0 0.00 0.21 0.21 33 1014.6
20260831232707 90 119 1.0 3.0 0.00 0.21 0.21 32 1014.7
20260831231805 92 151 1.0 3.0 0.00 0.21 0.21 31 1014.8
20260831230806 91 53 2.0 3.0 0.00 0.21 0.21 32 1014.7
20260831224807 89 75 6.0 9.0 0.00 0.21 0.21 33 1014.7
20260831222807 86 73 0.0 1.0 0.00 0.21 0.21 37 1015.1
20260831221807 85 73 6.0 12.0 0.00 0.21 0.21 37 1014.9
20260831214905 86 71 6.0 10.0 0.00 0.21 0.21 36 1015.3
20260831213921 86 43 7.0 16.0 0.00 0.21 0.21 37 1015.3
20260831212907 86 59 7.0 10.0 0.00 0.21 0.21 38 1015.6
20260831211006 86 66 7.0 14.0 0.01 0.21 0.21 38 1015.9
20260831210024 84 92 2.0 4.0 0.01 0.21 0.21 40 1016.1
20260831205022 84 112 2.0 3.0 0.01 0.21 0.21 42 1016.6
20260831204104 83 77 3.0 7.0 0.02 0.21 0.21 44 1016.6
20260831203106 81 67 0.0 1.0 0.02 0.21 0.21 46 1016.9
20260831202104 79 1 1.0 4.0 0.02 0.21 0.21 55 1017.0
20260831201124 76 302 6.0 9.0 0.01 0.20 0.20 67 1017.2
20260831200221 74 336 2.0 4.0 0.02 0.20 0.20 70 1016.7
20260831195307 75 103 3.0 6.0 0.03 0.20 0.20 71 1017.4
20260831194308 76 166 5.0 7.0 0.02 0.19 0.19 69 1017.6
20260831192306 74 45 0.0 0.0 0.18 0.19 0.19 75 1017.2
20260831191405 74 247 0.0 0.0 0.19 0.19 0.19 73 1017.4
20260831190405 75 255 1.0 4.0 0.18 0.18 0.18 70 1017.8
20260831185421 74 90 2.0 4.0 0.17 0.17 0.17 71 1017.8
20260831184508 72 67 2.0 5.0 0.17 0.17 0.17 73 1017.9
20260831183605 72 14 3.0 5.0 0.17 0.17 0.17 68 1017.9
20260831182624 79 98 4.0 7.0 0.05 0.05 0.04 52 1018.2
20260831180706 82 98 6.0 9.0 0.00 0.00 0.00 44 1017.3
20260831175707 83 114 11.0 16.0 0.00 0.00 0.00 42 1017.3
20260831174804 85 108 7.0 13.0 0.00 0.00 0.00 38 1017.3
20260831172905 85 89 5.0 8.0 0.00 0.00 0.00 39 1017.2
20260831172820 85 83 7.0 10.0 0.00 0.00 0.00 38 1017.2
20260831171907 86 86 4.0 8.0 0.00 0.00 0.00 38 1017.2
20260831171806 86 99 5.0 7.0 0.00 0.00 0.00 38 1017.3
20260831170822 86 59 5.0 8.0 0.00 0.00 0.00 36 1017.3
20260831170706 87 66 5.0 8.0 0.00 0.00 0.00 37 1017.3
20260831164707 85 95 5.0 10.0 0.00 0.00 0.00 38 1017.4
20260831163706 84 87 5.0 8.0 0.00 0.00 0.00 39 1017.6
20260831162705 84 83 7.0 12.0 0.00 0.00 0.00 38 1017.7
20260831161707 85 72 7.0 12.0 0.00 0.00 0.00 38 1017.6
20260831160704 84 81 5.0 9.0 0.00 0.00 0.00 38 1017.5
20260831160605 84 71 4.0 8.0 0.00 0.00 0.00 39 1017.4
20260831155622 84 113 3.0 5.0 0.00 0.00 0.00 39 1017.5
20260831154606 83 97 2.0 4.0 0.00 0.00 0.00 35 1017.5
20260831153621 81 225 0.0 0.0 0.00 0.00 0.00 35 1017.6
20260831152622 80 247 0.0 0.0 0.00 0.00 0.00 36 1017.6
20260831151703 79 246 2.0 3.0 0.00 0.00 0.00 36 1017.6
20260831150706 77 292 1.0 4.0 0.00 0.00 0.00 36 1017.5
20260831145706 77 292 1.0 3.0 0.00 0.00 0.00 37 1017.6
20260831144805 76 315 1.0 2.0 0.00 0.00 0.00 38 1017.7
20260831142806 74 292 0.0 0.0 0.00 0.00 0.00 41 1017.5
20260831141821 73 303 0.0 1.0 0.00 0.00 0.00 43 1017.5
20260831140821 72 292 0.0 0.0 0.00 0.00 0.00 44 1017.4
20260831135907 71 292 0.0 0.0 0.00 0.00 0.00 45 1017.2
20260831135003 70 292 0.0 0.0 0.00 0.00 0.00 44 1017.2
20260831134019 69 302 3.0 3.0 0.00 0.00 0.00 48 1016.9
20260831133021 69 315 0.0 0.0 0.00 0.00 0.00 45 1016.8
20260831132107 69 315 0.0 0.0 0.00 0.00 0.00 46 1016.7
20260831125220 69 22 0.0 1.0 0.00 0.00 0.00 47 1016.4
20260831124303 69 337 0.0 0.0 0.00 0.00 0.00 46 1016.3
20260831123304 69 337 1.0 2.0 0.00 0.00 0.00 47 1016.3
20260831122204 70 337 0.0 1.0 0.00 0.00 0.00 45 1016.0
20260831121219 71 337 0.0 0.0 0.00 0.00 0.00 41 1016.2
20260831120304 71 22 0.0 0.0 0.00 0.00 0.00 40 1016.0
20260831115319 71 112 1.0 2.0 0.00 0.00 0.00 40 1016.0
20260831114406 70 236 3.0 5.0 0.00 0.00 0.00 42 1015.9
20260831113405 70 315 0.0 0.0 0.00 0.00 0.00 45 1015.9
20260831112426 70 315 0.0 0.0 0.00 0.00 0.00 46 1015.9
20260831111520 71 331 0.0 2.0 0.00 0.00 0.00 43 1016.0
20260831110604 71 45 1.0 2.0 0.00 0.00 0.00 42 1015.9
20260831105622 70 67 1.0 4.0 0.00 0.00 0.00 41 1016.2
20260831104703 70 247 1.0 2.0 0.00 0.00 0.00 42 1016.0
20260831103705 70 247 2.0 3.0 0.00 0.00 0.00 47 1016.0
20260831102705 70 339 0.0 1.0 0.00 0.00 0.00 48 1015.9
20260831101720 70 315 0.0 2.0 0.00 0.00 0.00 47 1016.0
20260831100803 70 22 1.0 1.0 0.00 0.00 0.00 46 1016.0
20260831095808 70 337 0.0 1.0 0.00 0.00 0.00 44 1016.0
20260831094904 70 337 0.0 0.0 0.00 0.00 0.00 47 1015.8
20260831093919 71 337 0.0 0.0 0.00 0.00 0.00 48 1015.7
20260831092005 72 337 0.0 0.0 0.00 0.00 0.00 43 1015.5
20260831091007 72 337 2.0 2.0 0.00 0.00 0.00 40 1015.4
20260831090006 71 360 2.0 3.0 0.00 0.00 0.00 47 1015.3
20260831085006 72 292 1.0 2.0 0.00 0.00 0.00 46 1015.2
20260831084020 73 292 0.0 0.0 0.00 0.00 0.00 44 1015.2
20260831083019 73 292 0.0 0.0 0.00 0.00 0.00 45 1015.2
20260831082105 73 315 1.0 1.0 0.00 0.00 0.00 42 1015.2
20260831081107 73 315 0.0 0.0 0.00 0.00 0.00 43 1015.1
20260831080105 73 315 0.0 0.0 0.00 0.00 0.00 42 1014.9
20260831075105 74 315 0.0 0.0 0.00 0.00 0.00 41 1014.9
20260831075022 74 315 0.0 0.0 0.00 0.00 0.00 41 1014.9
20260831074103 75 352 0.0 2.0 0.00 0.00 0.00 38 1014.8
20260831073120 75 360 2.0 2.0 0.00 0.00 0.00 39 1014.9
20260831072204 76 67 0.0 0.0 0.00 0.00 0.00 38 1015.1